STARLINK-3793, 52380

Orbit data source: Space-Track

STARLINK-3793, 52380 is a payload satellite owned by SpaceX/Seattle (US) in LEO that was launched on Fri, 29 Apr 2022 UTC via an FALCON 9 launch vehicle from the Air Force Eastern Test Range (AFETR). Payload-class satellites include a variety of spacecraft equipped with specific instruments for various scientific and technological missions. These include communications satellites like Starlink; space stations such as the ISS; scientific satellites like the Hubble; Earth observation satellites from companies like Planet Labs, Umbra, and HawkEye 360; GPS; miniature CubeSats for education and research; and military/defense satellites.

Loading next visibility...
Identifier
52380, 2022-045BB
Orbit
LEO
Country
Flag of USUS
Related business
Manufacturer
SpaceX/Seattle
Mission
Operational Commercial Communications
Bus & Motor
STARLINK, Unknown motor
Mass
297 kg wet, ~275 kg dry
Launch date (UTC)
2022-04-29 (4 years ago)
Launch vehicle
FALCON 9
Launch site
Air Force Eastern Test Range (AFETR)
Object type
Payload
Rocket body
Debris
Shape & HBR
Box + 1 Pan, 10.1 m
Radar Cross Section
11.087 m², Large (>1 m²)

Expand to show TLE details & history
Last TLE update: 8 hours ago

TLE from 8 hours ago
0 STARLINK-3793
1 52380U 22045BB  26119.79130891  .00001393  00000-0  10553-3 0  9991
2 52380  53.2179 309.7480 0001974 106.0248 254.0962 15.08860287223774
Epoch: 2026-04-29T18:59Z
TLE epoch observation values (Epoch: 2026-04-29T18:59:29.089Z)
Latitude
-0.00002°
Longitude
167.12958°
Altitude
540.953 km
Speed
7.593 km/s
True Right ascension
20h 38m 59s
True Declination
0° 00' 00"
Sunlit
Object was in daylight at epoch
Visualization orbit readout
Latitude
Unknown
Longitude
Unknown
Altitude
Unknown
Speed
Unknown
Apparent Right ascension
Unknown
Apparent Declination
Unknown
Sunlit
N/A
Visualization observer readout
Local Sidereal Time
10:28:34
Azimuth
Unknown
Elevation
Unknown
Doppler factor
Unknown
Orbital elements
Apogee altitude
541.292 km
Perigee altitude
538.561 km
Semi-major axis
6,918.063 km
Eccentricity
0.0002
Inclination
53.2179°
RAAN
309.748°
Arg. of periapsis
106.0248°
True anomaly
254.07445°
Mean anomaly
254.0962°
Eccentric anomaly
254.08532°
Mean motion
3.77195 °/min
Orbital period
95.44 mins
BSTAR
0.00010553
Loading maneuver chart data...
Computing Atmospheric mass density...
Loading historical data...
Loading historical data...
Loading historical data...
Loading historical data...
Loading historical data...
Loading historical data...
Loading historical data...

Documentation

Showing up to 5 results
|